Time,TemperatureF,DewpointF,PressureIn,WindDirection,WindDirectionDegrees,WindSpeedMPH,WindSpeedGustMPH,Humidity,HourlyPrecipIn,Conditions,Clouds,dailyrainin,SoftwareType,DateUTC
2013-01-24 00:02:00,40.0,25.0,30.18,South,188,0.0,3.0,54,-99.99,,,0.00,,2013-01-24 07:02:00,
2013-01-24 00:12:00,40.0,25.0,30.19,South,188,0.0,3.0,55,-99.99,,,0.00,,2013-01-24 07:12:00,
2013-01-24 00:22:00,40.0,25.0,30.19,South,188,0.0,3.0,55,-99.99,,,0.00,,2013-01-24 07:22:00,
2013-01-24 00:30:00,39.0,25.0,30.18,South,188,1.0,5.0,56,-99.99,,,0.00,,2013-01-24 07:30:00,
2013-01-24 00:32:00,39.0,25.0,30.19,South,188,1.0,2.0,57,-99.99,,,0.00,,2013-01-24 07:32:00,
2013-01-24 00:42:00,40.0,25.0,30.18,South,188,0.0,3.0,55,-99.99,,,0.00,,2013-01-24 07:42:00,
2013-01-24 00:53:00,40.0,25.0,30.18,South,188,0.0,3.0,55,-99.99,,,0.00,,2013-01-24 07:53:00,
2013-01-24 01:02:00,40.0,25.0,30.17,South,188,0.0,3.0,55,-99.99,,,0.00,,2013-01-24 08:02:00,
2013-01-24 01:12:00,39.0,25.0,30.18,South,188,1.0,5.0,56,-99.99,,,0.00,,2013-01-24 08:12:00,
2013-01-24 01:22:00,39.0,25.0,30.18,South,188,1.0,5.0,56,-99.99,,,0.00,,2013-01-24 08:22:00,
2013-01-24 01:42:00,41.0,25.0,30.16,South,188,0.0,5.0,53,-99.99,,,0.00,,2013-01-24 08:42:00,
2013-01-24 01:53:00,41.0,25.0,30.16,South,188,0.0,5.0,53,-99.99,,,0.00,,2013-01-24 08:53:00,
2013-01-24 02:02:00,42.0,25.0,30.15,South,188,0.0,3.0,50,-99.99,,,0.00,,2013-01-24 09:02:00,
2013-01-24 02:12:00,41.0,25.0,30.15,South,188,1.0,4.0,53,-99.99,,,0.00,,2013-01-24 09:12:00,
2013-01-24 02:22:00,41.0,25.0,30.15,South,188,1.0,4.0,53,-99.99,,,0.00,,2013-01-24 09:22:00,
2013-01-24 02:32:00,39.0,26.0,30.17,South,188,0.0,5.0,59,-99.99,,,0.00,,2013-01-24 09:32:00,
2013-01-24 02:42:00,38.0,25.0,30.18,South,188,0.0,5.0,59,-99.99,,,0.00,,2013-01-24 09:42:00,
2013-01-24 02:53:00,38.0,25.0,30.18,South,188,0.0,5.0,59,-99.99,,,0.00,,2013-01-24 09:53:00,
2013-01-24 03:02:00,39.0,25.0,30.15,South,188,2.0,3.0,57,-99.99,,,0.00,,2013-01-24 10:02:00,
2013-01-24 03:12:00,39.0,25.0,30.15,South,188,3.0,4.0,58,-99.99,,,0.00,,2013-01-24 10:12:00,
2013-01-24 03:22:00,39.0,25.0,30.15,South,188,3.0,4.0,58,-99.99,,,0.00,,2013-01-24 10:22:00,
2013-01-24 03:32:00,39.0,25.0,30.16,South,188,0.0,4.0,58,-99.99,,,0.00,,2013-01-24 10:32:00,
2013-01-24 03:43:00,39.0,25.0,30.15,South,188,1.0,4.0,58,-99.99,,,0.00,,2013-01-24 10:43:00,
2013-01-24 03:53:00,39.0,25.0,30.15,South,188,1.0,4.0,58,-99.99,,,0.00,,2013-01-24 10:53:00,
2013-01-24 04:02:00,39.0,25.0,30.15,South,188,0.0,2.0,58,-99.99,,,0.00,,2013-01-24 11:02:00,
2013-01-24 04:12:00,39.0,25.0,30.15,South,188,2.0,2.0,58,-99.99,,,0.00,,2013-01-24 11:12:00,
2013-01-24 04:22:00,39.0,25.0,30.15,South,188,2.0,2.0,58,-99.99,,,0.00,,2013-01-24 11:22:00,
2013-01-24 04:32:00,38.0,25.0,30.16,South,188,0.0,3.0,59,-99.99,,,0.00,,2013-01-24 11:32:00,
2013-01-24 04:43:00,38.0,25.0,30.16,South,188,0.0,3.0,59,-99.99,,,0.00,,2013-01-24 11:43:00,
2013-01-24 04:53:00,38.0,25.0,30.16,South,188,0.0,3.0,59,-99.99,,,0.00,,2013-01-24 11:53:00,
2013-01-24 05:03:00,38.0,25.0,30.15,South,188,0.0,3.0,59,-99.99,,,0.00,,2013-01-24 12:03:00,
2013-01-24 05:12:00,38.0,26.0,30.14,South,188,0.0,3.0,60,-99.99,,,0.00,,2013-01-24 12:12:00,
2013-01-24 05:22:00,38.0,26.0,30.14,South,188,0.0,3.0,60,-99.99,,,0.00,,2013-01-24 12:22:00,
2013-01-24 05:32:00,40.0,26.0,30.13,South,188,3.0,4.0,57,-99.99,,,-99.99,,2013-01-24 12:32:00,
2013-01-24 05:42:00,41.0,25.0,30.12,South,188,0.0,4.0,53,-99.99,,,0.00,,2013-01-24 12:42:00,
2013-01-24 05:53:00,41.0,25.0,30.12,South,188,0.0,4.0,53,-99.99,,,0.00,,2013-01-24 12:53:00,
2013-01-24 06:02:00,41.0,25.0,30.20,South,188,0.0,2.0,53,-99.99,,,0.00,,2013-01-24 13:02:00,
2013-01-24 06:12:00,40.0,25.0,30.19,South,188,0.0,2.0,56,-99.99,,,0.00,,2013-01-24 13:12:00,
2013-01-24 06:22:00,40.0,25.0,30.19,South,188,0.0,2.0,56,-99.99,,,0.00,,2013-01-24 13:22:00,
2013-01-24 06:32:00,39.0,25.0,30.21,South,188,0.0,2.0,57,-99.99,,,0.00,,2013-01-24 13:32:00,
2013-01-24 06:42:00,39.0,25.0,30.21,South,188,2.0,2.0,56,-99.99,,,0.00,,2013-01-24 13:42:00,
2013-01-24 06:53:00,39.0,25.0,30.21,South,188,2.0,2.0,56,-99.99,,,0.00,,2013-01-24 13:53:00,
2013-01-24 07:02:00,40.0,25.0,30.21,South,188,0.0,2.0,56,-99.99,,,0.00,,2013-01-24 14:02:00,
2013-01-24 07:12:00,39.0,25.0,30.21,South,188,0.0,2.0,57,-99.99,,,-99.99,,2013-01-24 14:12:00,
2013-01-24 07:22:00,39.0,25.0,30.21,South,188,0.0,2.0,57,-99.99,,,-99.99,,2013-01-24 14:22:00,
2013-01-24 07:33:00,38.0,25.0,30.22,South,188,0.0,2.0,58,-99.99,,,0.00,,2013-01-24 14:33:00,
2013-01-24 07:43:00,38.0,25.0,30.24,South,188,0.0,2.0,59,-99.99,,,0.00,,2013-01-24 14:43:00,
2013-01-24 07:54:00,38.0,25.0,30.24,South,188,0.0,2.0,59,-99.99,,,0.00,,2013-01-24 14:54:00,
2013-01-24 08:03:00,37.0,25.0,30.24,South,188,0.0,0.0,61,-99.99,,,0.00,,2013-01-24 15:03:00,
2013-01-24 08:12:00,37.0,26.0,30.24,South,188,0.0,2.0,62,-99.99,,,0.00,,2013-01-24 15:12:00,
2013-01-24 08:22:00,37.0,26.0,30.24,South,188,0.0,2.0,62,-99.99,,,0.00,,2013-01-24 15:22:00,
2013-01-24 08:33:00,38.0,25.0,30.24,South,188,2.0,4.0,58,-99.99,,,0.00,,2013-01-24 15:33:00,
2013-01-24 08:43:00,38.0,25.0,30.25,South,188,3.0,4.0,59,-99.99,,,0.00,,2013-01-24 15:43:00,
2013-01-24 08:53:00,38.0,25.0,30.25,South,188,3.0,4.0,59,-99.99,,,0.00,,2013-01-24 15:53:00,
2013-01-24 09:03:00,38.0,26.0,30.25,South,188,2.0,3.0,61,-99.99,,,0.00,,2013-01-24 16:03:00,
2013-01-24 09:12:00,38.0,26.0,30.25,South,188,0.0,4.0,62,-99.99,,,0.00,,2013-01-24 16:12:00,
2013-01-24 09:22:00,38.0,26.0,30.25,South,188,0.0,4.0,62,-99.99,,,0.00,,2013-01-24 16:22:00,
2013-01-24 09:33:00,39.0,27.0,30.24,South,188,2.0,4.0,62,-99.99,,,0.00,,2013-01-24 16:33:00,
2013-01-24 09:42:00,39.0,27.0,30.25,South,188,2.0,4.0,61,-99.99,,,0.00,,2013-01-24 16:42:00,
2013-01-24 10:02:00,42.0,28.0,30.23,South,188,1.0,3.0,57,-99.99,,,0.00,,2013-01-24 17:02:00,
2013-01-24 10:11:00,48.0,26.0,30.20,SW,216,14.0,15.0,42,-99.99,,,0.00,,2013-01-24 17:11:00,
2013-01-24 10:21:00,48.0,26.0,30.20,SW,216,14.0,15.0,42,-99.99,,,0.00,,2013-01-24 17:21:00,
2013-01-24 10:32:00,49.0,27.0,30.18,South,182,12.0,21.0,43,-99.99,,,0.00,,2013-01-24 17:32:00,
2013-01-24 10:42:00,49.0,29.0,30.18,South,183,9.0,21.0,45,-99.99,,,0.00,,2013-01-24 17:42:00,
2013-01-24 10:52:00,49.0,29.0,30.18,South,183,9.0,21.0,45,-99.99,,,0.00,,2013-01-24 17:52:00,
2013-01-24 11:02:00,49.0,30.0,30.18,SW,218,7.0,17.0,47,-99.99,,,-99.99,,2013-01-24 18:02:00,
2013-01-24 11:12:00,49.0,30.0,30.19,South,173,14.0,30.0,48,-99.99,,,0.00,,2013-01-24 18:12:00,
2013-01-24 11:22:00,49.0,30.0,30.19,South,173,14.0,30.0,48,-99.99,,,0.00,,2013-01-24 18:22:00,
2013-01-24 11:30:00,49.0,31.0,30.18,SSW,200,4.0,23.0,51,-99.99,,,0.00,,2013-01-24 18:30:00,
2013-01-24 11:32:00,49.0,31.0,30.19,South,188,12.0,26.0,49,-99.99,,,0.00,,2013-01-24 18:32:00,
2013-01-24 11:42:00,49.0,30.0,30.19,SW,217,11.0,26.0,49,-99.99,,,0.00,,2013-01-24 18:42:00,
2013-01-24 11:53:00,49.0,30.0,30.19,SW,217,11.0,26.0,49,-99.99,,,0.00,,2013-01-24 18:53:00,
2013-01-24 12:00:00,48.0,32.0,30.17,South,187,16.0,21.0,53,-99.99,,,0.00,,2013-01-24 19:00:00,
2013-01-24 12:01:00,49.0,31.0,30.18,South,172,12.0,23.0,50,-99.99,,,0.00,,2013-01-24 19:01:00,
2013-01-24 12:12:00,49.0,31.0,30.18,SSW,200,4.0,23.0,51,-99.99,,,0.00,,2013-01-24 19:12:00,
2013-01-24 12:21:00,49.0,31.0,30.18,SSW,200,4.0,23.0,51,-99.99,,,0.00,,2013-01-24 19:21:00,
2013-01-24 12:42:00,48.0,32.0,30.17,South,187,16.0,21.0,53,-99.99,,,0.00,,2013-01-24 19:42:00,
2013-01-24 12:52:00,48.0,32.0,30.17,South,187,16.0,21.0,53,-99.99,,,0.00,,2013-01-24 19:52:00,
2013-01-24 13:11:00,46.0,32.0,30.17,South,173,12.0,19.0,58,-99.99,,,0.00,,2013-01-24 20:11:00,
2013-01-24 13:22:00,46.0,32.0,30.17,South,173,12.0,19.0,58,-99.99,,,0.00,,2013-01-24 20:22:00,
2013-01-24 13:32:00,46.0,33.0,30.16,South,184,14.0,18.0,60,-99.99,,,0.00,,2013-01-24 20:32:00,
2013-01-24 13:42:00,45.0,34.0,30.16,South,188,7.0,20.0,66,-99.99,,,0.00,,2013-01-24 20:42:00,
2013-01-24 13:52:00,45.0,34.0,30.16,South,188,7.0,20.0,66,-99.99,,,0.00,,2013-01-24 20:52:00,
2013-01-24 14:02:00,45.0,36.0,30.16,South,190,7.0,19.0,69,-99.99,,,0.00,,2013-01-24 21:02:00,
2013-01-24 14:12:00,45.0,36.0,30.16,South,190,7.0,19.0,69,-99.99,,,0.00,,2013-01-24 21:12:00,
2013-01-24 14:22:00,45.0,36.0,30.16,South,190,7.0,19.0,69,-99.99,,,0.00,,2013-01-24 21:22:00,
2013-01-24 14:32:00,44.0,35.0,30.15,South,173,11.0,19.0,72,-99.99,,,0.00,,2013-01-24 21:32:00,
2013-01-24 14:42:00,43.0,35.0,30.17,South,188,20.0,21.0,73,-99.99,,,0.00,,2013-01-24 21:42:00,
2013-01-24 14:53:00,43.0,35.0,30.17,South,188,20.0,21.0,73,-99.99,,,0.00,,2013-01-24 21:53:00,
2013-01-24 15:02:00,43.0,36.0,30.16,South,184,16.0,23.0,78,-99.99,,,0.00,,2013-01-24 22:02:00,
2013-01-24 15:12:00,42.0,37.0,30.17,South,186,6.0,23.0,82,-99.99,,,0.00,,2013-01-24 22:12:00,
2013-01-24 15:22:00,42.0,37.0,30.17,South,186,6.0,23.0,82,-99.99,,,0.00,,2013-01-24 22:22:00,
2013-01-24 15:32:00,42.0,37.0,30.17,SSW,192,11.0,16.0,82,-99.99,,,0.00,,2013-01-24 22:32:00,
2013-01-24 15:42:00,42.0,37.0,30.17,SSW,198,4.0,16.0,83,-99.99,,,0.00,,2013-01-24 22:42:00,
2013-01-24 15:53:00,42.0,37.0,30.17,SSW,198,4.0,16.0,83,-99.99,,,0.00,,2013-01-24 22:53:00,
2013-01-24 16:02:00,43.0,38.0,30.18,South,182,9.0,19.0,82,-99.99,,,0.00,,2013-01-24 23:02:00,
2013-01-24 16:11:00,42.0,37.0,30.18,SSW,200,11.0,20.0,82,-99.99,,,0.00,,2013-01-24 23:11:00,
2013-01-24 16:21:00,42.0,37.0,30.18,SSW,200,11.0,20.0,82,-99.99,,,0.00,,2013-01-24 23:21:00,
2013-01-24 16:32:00,42.0,37.0,30.18,South,181,3.0,15.0,84,-99.99,,,0.00,,2013-01-24 23:32:00,
2013-01-24 16:42:00,41.0,37.0,30.20,South,176,5.0,15.0,86,-99.99,,,0.00,,2013-01-24 23:42:00,
2013-01-24 16:52:00,41.0,37.0,30.20,South,176,5.0,15.0,86,-99.99,,,0.00,,2013-01-24 23:52:00,
2013-01-24 17:02:00,41.0,37.0,30.17,SSE,167,5.0,10.0,87,-99.99,,,0.00,,2013-01-25 00:02:00,
2013-01-24 17:12:00,41.0,37.0,30.17,SSE,157,5.0,11.0,87,-99.99,,,0.00,,2013-01-25 00:12:00,
2013-01-24 17:22:00,41.0,37.0,30.17,SSE,157,1.0,8.0,88,-99.99,,,0.00,,2013-01-25 00:22:00,
2013-01-24 17:32:00,41.0,37.0,30.17,SSE,157,1.0,8.0,88,-99.99,,,0.00,,2013-01-25 00:32:00,
2013-01-24 17:41:00,41.0,37.0,30.17,SSE,157,2.0,10.0,87,-99.99,,,0.00,,2013-01-25 00:41:00,
2013-01-24 17:52:00,41.0,37.0,30.17,SSE,157,2.0,10.0,87,-99.99,,,0.00,,2013-01-25 00:52:00,
2013-01-24 18:01:00,41.0,37.0,30.19,SSE,157,5.0,7.0,87,-99.99,,,0.00,,2013-01-25 01:01:00,
2013-01-24 18:12:00,40.0,37.0,30.20,SE,145,7.0,11.0,87,-99.99,,,0.00,,2013-01-25 01:12:00,
2013-01-24 18:21:00,40.0,37.0,30.20,SE,145,7.0,11.0,87,-99.99,,,0.00,,2013-01-25 01:21:00,
2013-01-24 18:31:00,40.0,37.0,30.20,SE,142,9.0,11.0,88,-99.99,,,0.00,,2013-01-25 01:31:00,
2013-01-24 18:42:00,41.0,38.0,30.19,SE,142,7.0,11.0,88,-99.99,,,0.00,,2013-01-25 01:42:00,
2013-01-24 18:52:00,41.0,38.0,30.19,SE,142,7.0,11.0,88,-99.99,,,0.00,,2013-01-25 01:52:00,
2013-01-24 19:02:00,41.0,37.0,30.20,SE,142,3.0,9.0,87,-99.99,,,0.00,,2013-01-25 02:02:00,
2013-01-24 19:11:00,41.0,37.0,30.20,SE,142,3.0,9.0,87,-99.99,,,0.00,,2013-01-25 02:11:00,
2013-01-24 19:22:00,41.0,37.0,30.20,SE,142,3.0,9.0,87,-99.99,,,0.00,,2013-01-25 02:22:00,
2013-01-24 19:32:00,41.0,37.0,30.20,SE,143,2.0,6.0,87,-99.99,,,0.00,,2013-01-25 02:32:00,
2013-01-24 19:42:00,40.0,36.0,30.21,SE,143,2.0,6.0,86,-99.99,,,0.00,,2013-01-25 02:42:00,
2013-01-24 19:52:00,40.0,36.0,30.21,SE,143,2.0,6.0,86,-99.99,,,0.00,,2013-01-25 02:52:00,
2013-01-24 20:02:00,40.0,36.0,30.21,SE,143,0.0,4.0,84,-99.99,,,0.00,,2013-01-25 03:02:00,
2013-01-24 20:12:00,40.0,35.0,30.21,SE,142,0.0,4.0,84,-99.99,,,0.00,,2013-01-25 03:12:00,
2013-01-24 20:22:00,40.0,35.0,30.21,SE,142,0.0,4.0,84,-99.99,,,0.00,,2013-01-25 03:22:00,
2013-01-24 20:32:00,40.0,35.0,30.21,SE,143,0.0,1.0,85,-99.99,,,0.00,,2013-01-25 03:32:00,
2013-01-24 20:41:00,40.0,35.0,30.22,SE,143,0.0,3.0,85,-99.99,,,0.00,,2013-01-25 03:41:00,
2013-01-24 20:52:00,40.0,35.0,30.22,SE,143,0.0,3.0,85,-99.99,,,0.00,,2013-01-25 03:52:00,
2013-01-24 21:02:00,40.0,37.0,30.22,SE,143,4.0,7.0,87,-99.99,,,0.00,,2013-01-25 04:02:00,
2013-01-24 21:12:00,40.0,37.0,30.23,SE,143,2.0,7.0,87,-99.99,,,0.00,,2013-01-25 04:12:00,
2013-01-24 21:22:00,40.0,37.0,30.23,SE,143,2.0,7.0,87,-99.99,,,0.00,,2013-01-25 04:22:00,
2013-01-24 21:31:00,41.0,37.0,30.22,SE,142,0.0,4.0,88,-99.99,,,0.00,,2013-01-25 04:31:00,
2013-01-24 21:41:00,41.0,38.0,30.21,SE,142,2.0,4.0,88,-99.99,,,0.00,,2013-01-25 04:41:00,
2013-01-24 21:51:00,41.0,38.0,30.21,SE,142,2.0,4.0,88,-99.99,,,0.00,,2013-01-25 04:51:00,
2013-01-24 22:03:00,41.0,38.0,30.14,SE,143,5.0,6.0,89,-99.99,,,0.00,,2013-01-25 05:03:00,
2013-01-24 22:12:00,41.0,38.0,30.14,SE,138,5.0,10.0,89,-99.99,,,0.00,,2013-01-25 05:12:00,
2013-01-24 22:22:00,41.0,38.0,30.14,SE,138,5.0,10.0,89,-99.99,,,0.00,,2013-01-25 05:22:00,
2013-01-24 22:32:00,41.0,38.0,30.15,SE,138,0.0,6.0,89,-99.99,,,0.00,,2013-01-25 05:32:00,
2013-01-24 22:43:00,41.0,38.0,30.15,SE,137,0.0,6.0,89,-99.99,,,0.00,,2013-01-25 05:43:00,
2013-01-24 22:52:00,41.0,38.0,30.15,SE,137,0.0,6.0,89,-99.99,,,0.00,,2013-01-25 05:52:00,
2013-01-24 23:02:00,41.0,39.0,30.15,SE,137,2.0,5.0,90,-99.99,,,0.00,,2013-01-25 06:02:00,
2013-01-24 23:11:00,42.0,39.0,30.15,SE,138,3.0,6.0,89,-99.99,,,0.00,,2013-01-25 06:11:00,
2013-01-24 23:21:00,42.0,39.0,30.15,SE,138,3.0,6.0,89,-99.99,,,0.00,,2013-01-25 06:21:00,
2013-01-24 23:30:00,41.0,38.0,30.15,SE,138,3.0,10.0,89,-99.99,,,0.00,,2013-01-25 06:30:00,
2013-01-24 23:31:00,41.0,38.0,30.14,SE,138,4.0,5.0,89,-99.99,,,0.00,,2013-01-25 06:31:00,
2013-01-24 23:41:00,41.0,38.0,30.15,SE,138,5.0,7.0,89,-99.99,,,0.00,,2013-01-25 06:41:00,
2013-01-24 23:52:00,41.0,38.0,30.15,SE,138,5.0,7.0,89,-99.99,,,0.00,,2013-01-25 06:52:00,